Flag for Canada Weather past 2 weeks in Rouyn-Noranda, Quebec, Canada

Now
61 °F

Broken clouds.


Feels Like: 61 °F
Forecast: 53 / 75 °F
Wind: 5 mph from West

Location: Rouyn Airport

Current Time: Jul 24, 2014 at 11:46:53 PM

Latest Report: Jul 24, 2014 at 10:00 PM


Visibility: 15 mi

Pressure: 29.88 "Hg

Humidity: 83%

Dew point: 55 °F

Location of Rouyn-NorandaLocation

Historic Weather in Rouyn-Noranda — Graph

°F

Rouyn-Noranda temperature yesterday

Maximum temperature yesterday: 72 °F (at 12:00 AM)
Minimum temperature yesterday: 46 °F (at 11:00 PM)
Average temperature yesterday: 58 °F

Past Weeks' High & Low Weather Summary

 TemperatureHumidityPressure
High79 °F (Jul 18, 5:00 PM)100% (Jul 9, 10:00 PM)30.20 "Hg (Jul 9, 10:00 PM)
Low43 °F (Jul 24, 12:00 AM)39% (Jul 19, 2:00 PM)29.55 "Hg (Jul 13, 3:00 PM)
Average62 °F76%29.95 "Hg
* Reported Jul 9 10:00 PM — Jul 24 10:00 PM, Rouyn-Noranda, Weather by CustomWeather, © 2014

Note: Actual official high and low records may vary slightly from our data, if they occured in-between our weather recording intervals... More about our weather records

Advertising

Rouyn-Noranda weather history for July 12, 2014

 ConditionsComfort  
Time TempWeatherWind HumidityBarometerVisibility
12:00 AM
Jul 12
64 °FPassing clouds.10 mph68%30.09 "Hg15 mi
1:00 AM63 °FPartly cloudy.8 mph73%30.09 "Hg15 mi
2:00 AM63 °FPassing clouds.8 mph73%30.08 "Hg15 mi
2:49 AM63 °FSprinkles. Mostly cloudy.7 mph73%30.06 "Hg15 mi
3:00 AM63 °FSprinkles. Mostly cloudy.8 mph73%30.06 "Hg15 mi
4:00 AM61 °FSprinkles. Mostly cloudy.5 mph83%30.06 "Hg15 mi
5:00 AM59 °FSprinkles. Mostly cloudy.2 mph88%30.06 "Hg15 mi
6:00 AM59 °FSprinkles. Mostly cloudy.7 mph88%30.04 "Hg15 mi
7:00 AM59 °FMostly cloudy.9 mph88%30.03 "Hg15 mi
8:00 AM61 °FMostly cloudy.9 mph77%30.03 "Hg15 mi
9:00 AM63 °FMostly cloudy.12 mph73%30.03 "Hg15 mi
10:00 AM66 °FSprinkles. Partly sunny.12 mph68%30.02 "Hg10 mi
11:00 AM64 °FSprinkles. Fog.13 mph83%30.03 "Hg4 mi
12:00 PM64 °FSprinkles. Fog.15 mph88%30.02 "Hg5 mi
1:00 PM66 °FSprinkles. Partly sunny.9 mph88%29.99 "Hg10 mi
2:00 PM73 °FSprinkles. Mostly cloudy.14 mph74%29.97 "Hg15 mi
3:00 PM72 °FPartly sunny.14 mph69%29.97 "Hg12 mi
4:00 PM72 °FPartly sunny.16 mph69%29.97 "Hg15 mi
5:00 PM72 °FMostly cloudy.12 mph73%29.96 "Hg15 mi
6:00 PM75 °FBroken clouds.8 mph65%29.94 "Hg15 mi
7:00 PM73 °FPartly sunny.10 mph65%29.92 "Hg15 mi
8:00 PM72 °FOvercast.12 mph69%29.91 "Hg15 mi
9:00 PM70 °FOvercast.14 mph69%29.90 "Hg15 mi
10:00 PM68 °FOvercast.8 mph73%29.90 "Hg15 mi
11:00 PM66 °FPassing clouds.5 mph73%29.88 "Hg15 mi
Weather by CustomWeather, © 2014

See weather overviewHow to use our weather pages